Dewpoint
22 24 23 24 21 22 23 23 25 26 26 27 27 29 30 31 33 35 38 41 38 40 42 42 43 45 46 51 56 56 55 55 53 53 54 54 54 55 55 53 53 54 55
20 21 21 20 19 20 20 21 23 23 24 25 25 27 28 29 31 34 35 34 35 36 37 38 38 39 41 43 45 46 47 53 54 52 52 54 54 55 55 55 54 54 55
18 18 18 18 18 18 19 20 21 22 22 23 24 25 26 28 29 32 31 32 32 33 34 35 36 37 39 41 40 41 42 43 46 49 51 53 54 55 54 55 54 54 54
16 16 17 18 17 17 19 19 20 20 20 22 23 23 25 25 27 30 30 30 31 31 34 35 35 36 36 36 37 38 40 42 43 44 45 48 52 53 53 52 52 52 52
14 15 15 17 16 18 19 19 19 20 20 21 22 22 23 23 25 29 29 28 28 29 31 30 33 33 33 35 33 35 37 37 37 38 39 43 45 46 48 50 49 50 52
14 15 15 16 16 18 18 18 19 19 20 21 21 21 22 22 27 28 27 26 27 27 28 28 30 31 32 33 34 34 34 32 33 34 36 37 38 42 45 46 48 48 47
14 14 15 15 15 17 17 17 18 18 19 19 19 20 20 21 26 26 26 23 22 24 24 24 23 23 28 28 30 31 32 33 33 32 33 34 36 39 42 42 44 46 47
13 13 14 15 15 16 17 17 17 18 18 18 18 19 19 19 24 24 24 21 21 21 22 23 23 23 25 25 25 25 26 27 30 31 33 33 34 36 38 39 40 40 43
12 12 12 14 14 15 16 16 17 18 17 17 18 18 19 19 22 23 22 21 20 21 21 22 22 22 23 25 23 23 22 24 26 30 32 33 34 35 35 35 34 35 37
10 10 11 12 13 14 14 16 17 17 16 17 17 19 21 18 20 21 20 20 19 19 20 20 21 20 23 24 22 22 22 22 24 26 28 29 31 33 33 33 34 34 36
7 7 8 10 11 12 13 14 15 14 15 17 15 17 18 18 16 19 19 16 16 17 17 17 17 21 22 23 23 20 21 21 22 22 25 29 32 32 33 34 35 37 36
5 5 7 10 10 9 13 12 12 12 13 14 14 14 15 13 14 16 16 18 17 16 15 14 16 19 20 21 19 20 20 18 18 17 17 19 21 25 31 35 35 37 39
4 6 8 8 10 10 10 10 9 11 10 10 10 12 11 11 12 13 15 16 15 14 12 13 16 15 16 15 16 17 15 13 13 12 13 14 15 19 21 26 37 38 38
4 4 5 6 6 7 7 5 8 8 7 8 9 10 10 9 9 10 13 13 14 13 12 10 9 10 10 10 9 11 10 10 9 11 10 12 14 16 18 20 24 36 37
2 2 3 3 5 4 3 4 4 5 7 8 10 9 8 7 9 11 12 11 11 11 8 5 3 3 2 2 1 4 6 6 5 7 7 9 11 12 14 16 18 23 33
-0 -1 -1 -0 0 -1 -1 0 2 4 6 7 8 8 9 9 10 12 12 12 12 10 3 -1 -2 -2 -2 -2 -2 -3 0 -0 0 2 5 5 7 8 10 13 15 17 21
-4 -2 -2 -2 -3 -2 -2 -2 -1 2 4 4 5 7 8 8 9 11 11 10 8 5 -3 -3 -5 -5 -5 -5 -4 -5 -4 -3 -2 -2 0 2 4 6 6 9 12 14 16
-5 -5 -4 -3 -3 -3 -4 -3 -2 -2 -2 -2 0 3 5 6 7 10 8 5 -5 -4 -5 -7 -7 -8 -8 -8 -7 -7 -7 -6 -6 -6 -4 -2 1 2 3 5 9 10 12
-6 -6 -6 -6 -5 -6 -6 -5 -5 -5 -4 -4 -4 -2 0 2 6 6 4 -6 -8 -8 -8 -9 -9 -9 -9 -10 -10 -9 -9 -9 -9 -7 -6 -5 -3 -1 0 4 7 9 11
-6 -9 -10 -8 -7 -7 -7 -7 -8 -7 -7 -7 -7 -6 -5 -5 -3 -7 -7 -8 -9 -9 -9 -10 -10 -10 -11 -12 -12 -12 -11 -11 -11 -9 -8 -6 -5 -4 -2 3 6 7 8
-6 -7 -11 -10 -8 -8 -8 -9 -8 -8 -8 -9 -8 -6 2 -1 -8 -9 -10 -10 -10 -11 -11 -11 -12 -12 -12 -13 -14 -13 -13 -13 -12 -11 -9 -8 -7 -6 -3 5 6 7 8
-7 -7 -8 -9 -10 -10 -9 -9 -11 -10 -10 -10 -10 -8 1 -9 -10 -11 -11 -11 -11 -11 -11 -12 -13 -13 -13 -14 -15 -15 -15 -15 -13 -12 -11 -10 -9 -6 -2 4 4 5 6
-7 -8 -9 -9 -10 -12 -11 -11 -10 -10 -11 -11 -11 -11 -11 -11 -11 -12 -12 -12 -12 -13 -12 -13 -14 -15 -15 -15 -15 -15 -15 -15 -14 -13 -12 -11 -10 -6 1 3 3 4 5
-9 -9 -10 -10 -11 -11 -12 -12 -11 -13 -13 -12 -12 -12 -12 -12 -12 -13 -13 -13 -13 -14 -14 -15 -16 -17 -17 -17 -17 -16 -15 -15 -14 -12 -11 -10 -7 0 2 2 2 3 4
-11 -10 -11 -11 -12 -12 -13 -13 -13 -12 -12 -12 -12 -12 -13 -13 -13 -14 -14 -14 -15 -16 -17 -17 -17 -17 -19 -19 -19 -19 -18 -15 -14 -10 -7 -2 -1 -0 2 3 2 3 3
-11 -11 -11 -11 -13 -13 -13 -13 -13 -13 -13 -13 -13 -13 -13 -14 -14 -14 -15 -15 -16 -17 -18 -18 -18 -19 -19 -18 -19 -15 -12 -5 -5 -2 -0 -0 -0 2 3 2 2 2 2
Lifted_Index
11 11 11 11 11 10 10 10 10 10 10 9 9 8 8 8 9 9 8 8 8 7 7 6 5 4 3 2 1 1 1 1 1 1 1 1 1 1 1 1 1 1 1
10 10 10 10 10 10 10 11 11 11 11 11 11 10 10 10 10 10 10 9 9 8 8 8 7 6 6 5 4 3 3 2 2 1 1 1 1 1 1 1 1 1 1
9 9 9 9 10 11 11 12 12 12 12 12 12 12 12 12 12 11 11 10 10 10 10 10 10 9 9 9 8 7 6 5 4 3 2 2 1 1 1 1 1 1 1
8 8 9 10 11 12 12 13 13 13 13 13 13 13 13 12 12 12 11 10 10 10 10 10 11 11 11 11 11 10 9 9 8 6 5 4 3 2 1 1 1 1 2
7 8 9 11 12 12 13 13 13 13 13 13 13 13 13 13 13 12 11 11 10 10 10 11 11 12 12 12 12 12 11 10 10 9 8 7 6 4 3 2 2 2 2
8 9 11 12 12 13 13 13 13 13 13 13 13 13 13 13 13 13 12 12 11 11 11 11 12 12 12 12 12 12 12 11 11 10 10 9 8 7 6 5 4 3 2
9 10 11 12 12 13 13 13 13 13 13 13 13 13 13 14 14 14 14 13 13 12 12 12 13 13 13 13 12 12 12 12 12 11 10 10 9 9 9 8 7 5 4
10 11 12 12 13 13 13 13 13 13 13 13 13 14 14 15 15 15 15 15 14 14 14 14 14 14 14 14 14 13 13 13 13 13 12 11 11 11 11 10 9 8 7
11 12 13 13 13 13 13 13 13 14 14 14 14 14 15 16 16 16 16 16 16 16 16 16 16 16 16 16 15 15 14 14 14 14 14 13 13 13 13 12 10 9 8
12 13 13 14 14 14 14 14 15 15 15 15 15 16 16 17 17 18 18 18 17 17 17 17 18 18 18 18 17 16 16 15 15 15 15 15 14 14 13 12 11 10 9
14 14 14 15 15 15 15 16 16 16 16 16 16 17 18 18 19 20 20 20 19 19 19 19 20 20 20 20 19 18 18 17 16 16 16 16 15 15 14 13 12 11 10
14 15 15 16 16 17 17 17 17 16 16 16 16 17 18 19 20 21 22 22 21 20 20 21 21 22 22 21 21 20 19 18 17 16 16 16 16 16 15 14 13 12 11
15 15 16 16 17 17 17 17 17 17 16 16 16 17 18 20 21 22 23 23 23 22 22 22 22 22 22 22 21 20 19 18 17 16 15 16 16 16 16 15 14 13 12
15 16 16 16 17 17 17 17 17 17 17 17 17 17 18 19 21 22 23 24 23 23 23 22 22 22 21 21 20 19 18 17 15 15 14 15 16 16 15 14 14 13 13
16 16 16 16 16 17 17 18 18 19 19 19 19 19 20 20 22 23 24 24 24 24 23 22 21 20 19 18 17 17 16 15 14 13 13 13 14 14 14 13 13 13 13
15 15 15 16 16 17 17 17 18 19 20 21 21 21 21 22 22 23 24 24 23 22 21 19 19 18 17 16 15 15 15 15 15 14 13 12 13 13 13 13 12 12 12
15 16 16 16 16 17 17 17 18 18 19 20 21 21 21 21 21 21 22 21 20 20 18 17 17 16 16 15 15 15 15 16 16 16 15 13 13 13 13 12 11 11 11
16 16 17 17 17 17 17 17 17 18 18 18 19 19 19 19 19 19 19 18 17 17 16 16 16 16 16 16 16 17 17 17 17 17 16 15 14 14 13 13 12 11 11
17 17 17 18 18 18 18 18 18 17 17 17 17 18 18 18 18 18 18 17 16 15 16 16 16 16 17 17 17 18 18 18 18 17 17 17 16 15 15 14 14 13 12
18 18 18 18 18 18 17 17 17 17 16 16 16 17 17 17 16 16 17 16 16 16 16 16 17 17 17 18 18 18 18 18 18 18 18 18 17 17 16 16 15 14 13
17 17 17 17 17 17 17 16 16 16 15 15 15 16 17 16 16 16 16 16 16 17 17 17 17 18 18 18 18 19 19 19 19 19 19 19 19 18 18 17 17 16 15
17 17 17 16 16 16 16 16 15 15 15 15 15 16 16 16 16 16 16 17 17 18 18 18 18 18 19 19 19 19 19 19 20 20 20 20 20 19 19 19 18 17 16
17 16 16 15 15 15 15 15 15 15 15 15 15 15 16 16 16 16 16 17 17 18 18 19 19 19 19 19 20 20 20 20 21 21 21 21 20 20 20 20 19 18 17
16 15 15 15 15 15 15 15 15 15 15 15 15 15 15 16 16 16 17 17 18 18 18 18 19 19 19 20 20 21 21 21 22 22 21 21 21 21 21 21 20 19 18
15 15 15 15 14 14 14 14 14 14 15 15 15 15 15 16 16 16 17 17 18 18 18 18 18 19 19 20 20 20 21 21 21 21 21 21 21 21 22 22 21 21 20
15 15 15 14 14 14 14 14 14 14 14 15 15 15 16 16 16 17 17 17 18 18 18 18 18 19 19 20 20 20 21 21 21 20 20 20 21 21 22 22 22 21 21